GW7103 Weather Reports


time (UTC)temp
F
wind
direction
speed
knots
gust
knots
rain 1hr
in
rain 24hr
in
rain mn
in
humidity
%
barometer
mb
20260508080020 33 77 0.9 2.6 0.00 0.03 0.00 88 1005.2
20260508074527 33 96 0.0 1.7 0.00 0.03 0.00 88 1005.1
20260508073028 33 96 0.9 0.9 0.00 0.03 0.00 88 1005.1
20260508071528 33 96 0.9 0.9 0.00 0.03 0.00 88 1005.2
20260508070026 33 96 0.0 0.9 0.00 0.03 0.00 88 1005.3
20260508064516 33 96 0.9 0.9 0.00 0.03 0.00 88 1005.4
20260508063010 33 96 0.0 1.7 0.00 0.04 0.00 86 1005.3
20260508061511 33 96 0.9 1.7 0.00 0.05 0.00 88 1005.4
20260508060016 33 96 0.9 1.7 0.00 0.08 0.00 88 1005.6
20260508054518 33 96 0.9 1.7 0.00 0.08 0.00 87 1005.7
20260508053020 33 96 0.9 1.7 0.00 0.08 0.00 87 1005.8
20260508051508 33 96 0.9 1.7 0.00 0.11 0.00 87 1005.8
20260508050013 33 96 0.9 1.7 0.00 0.12 0.00 87 1006.1
20260508044520 33 96 0.9 1.7 0.00 0.13 0.00 86 1006.2
20260508043020 34 96 0.0 1.7 0.00 0.14 0.00 85 1006.3
20260508041522 34 96 0.9 1.7 0.00 0.15 0.00 85 1006.4
20260508040010 34 96 1.7 1.7 0.00 0.17 0.00 84 1006.3
20260508034520 35 318 0.0 0.9 0.00 0.21 0.18 83 1006.2
20260508033022 35 318 0.9 0.9 0.00 0.28 0.18 82 1006.1
20260508031521 41 293 3.5 4.3 0.00 0.32 0.18 72 1006.0
20260508030021 36 302 0.0 0.9 0.00 0.33 0.18 80 1006.1
20260508024532 43 302 1.7 3.5 0.00 0.35 0.18 66 1006.0
20260508023021 43 302 1.7 2.6 0.00 0.40 0.18 66 1006.1
20260508021524 44 302 2.6 4.3 0.00 0.46 0.18 59 1006.1
20260508020026 44 305 2.6 4.3 0.00 0.52 0.18 59 1006.2
20260508014526 45 312 4.3 8.7 0.00 0.58 0.18 58 1006.4
20260508013016 45 311 7.0 10.4 0.00 0.61 0.18 57 1006.4
20260508011518 46 312 7.0 9.6 0.00 0.62 0.18 55 1006.5
20260508010026 46 324 6.1 7.0 0.00 0.62 0.18 56 1006.4
20260508004539 46 321 6.1 7.8 0.00 0.64 0.18 55 1006.2
20260508003010 46 314 4.3 6.1 0.00 0.64 0.18 57 1006.1
20260508001529 47 326 3.5 6.1 0.00 0.64 0.18 53 1006.0
20260508000023 47 335 5.2 8.7 0.00 0.64 0.18 54 1005.7
20260507234526 48 325 7.8 11.3 0.00 0.64 0.18 53 1005.7
20260507233024 48 339 7.8 18.2 0.00 0.65 0.18 52 1005.6
20260507231515 49 338 12.2 17.4 0.00 0.66 0.18 49 1005.5
20260507230017 49 340 9.6 17.4 0.00 0.67 0.18 49 1005.3
20260507224523 49 319 11.3 14.8 0.00 0.68 0.18 52 1005.4
20260507223026 50 330 12.2 14.8 0.00 0.68 0.18 50 1005.1
20260507221530 51 325 8.7 12.2 0.00 0.68 0.18 53 1005.0
20260507220017 51 345 11.3 15.6 0.00 0.68 0.18 55 1004.7
20260507214521 52 330 12.2 14.8 0.00 0.69 0.18 56 1004.7
20260507213031 52 335 8.7 15.6 0.00 0.70 0.18 57 1004.3
20260507211526 52 354 9.6 13.9 0.00 0.72 0.18 59 1004.2
20260507210027 52 328 7.0 10.4 0.00 0.77 0.18 62 1003.8
20260507204519 52 335 4.3 6.1 0.00 0.84 0.18 69 1003.8
20260507203038 53 304 7.0 8.7 0.00 0.88 0.18 62 1003.6
20260507201526 52 329 3.5 5.2 0.00 0.99 0.18 70 1003.7
20260507200028 51 341 3.5 8.7 0.00 1.15 0.18 73 1003.7
20260507194526 51 314 5.2 7.8 0.02 1.19 0.18 75 1003.9
20260507193027 50 330 4.3 6.1 0.03 1.22 0.18 76 1004.0
20260507191524 49 342 0.0 5.2 0.03 1.25 0.18 80 1003.9
20260507190028 48 308 8.7 13.9 0.03 1.28 0.18 77 1004.3
20260507184527 49 291 8.7 12.2 0.01 1.29 0.16 71 1004.2
20260507183022 52 273 7.8 9.6 0.00 1.30 0.15 61 1003.7
20260507181507 54 326 6.1 7.8 0.00 1.30 0.15 57 1003.5
20260507180011 54 338 6.1 8.7 0.00 1.30 0.15 52 1003.4
20260507174522 53 294 2.6 9.6 0.00 1.30 0.15 57 1003.5
20260507173044 55 275 2.6 7.8 0.00 1.30 0.15 53 1003.5
20260507171526 56 285 1.7 5.2 0.00 1.31 0.15 53 1003.4
20260507170007 56 275 1.7 4.3 0.00 1.31 0.15 57 1003.7
20260507164508 55 271 2.6 4.3 0.00 1.32 0.15 57 1003.9
20260507163019 55 281 2.6 4.3 0.00 1.32 0.15 57 1004.1
20260507161520 53 285 0.9 2.6 0.00 1.32 0.15 58 1004.2
20260507160026 53 285 1.7 3.5 0.00 1.32 0.15 60 1004.4
20260507154510 53 285 1.7 2.6 0.00 1.32 0.15 60 1004.5
20260507153014 52 285 2.6 2.6 0.00 1.32 0.15 62 1004.7
20260507151518 51 274 1.7 3.5 0.00 1.32 0.15 65 1005.0
20260507150034 51 280 1.7 3.5 0.00 1.32 0.15 67 1005.3
20260507144526 49 281 2.6 3.5 0.00 1.32 0.15 72 1005.4
20260507143012 48 278 2.6 3.5 0.00 1.32 0.15 74 1005.4
20260507141517 48 280 2.6 3.5 0.00 1.32 0.15 76 1005.6
20260507140020 47 275 1.7 3.5 0.00 1.32 0.15 77 1005.5
20260507134524 45 279 2.6 3.5 0.00 1.32 0.15 80 1005.6
20260507133009 46 277 2.6 3.5 0.00 1.32 0.15 78 1005.7
20260507131516 46 290 0.9 1.7 0.00 1.32 0.15 81 1005.7
20260507130018 45 290 0.9 1.7 0.00 1.32 0.15 82 1006.0
20260507124528 45 290 0.9 2.6 0.00 1.32 0.15 80 1006.4
20260507123034 44 340 1.7 1.7 0.00 1.32 0.15 83 1006.5
20260507121512 45 340 0.0 0.0 0.00 1.32 0.15 86 1006.0
20260507120005 44 340 0.0 1.7 0.00 1.32 0.15 86 1006.5
20260507114504 44 340 0.0 0.0 0.00 1.32 0.15 91 1006.0
20260507113011 44 340 0.0 1.7 0.00 1.32 0.15 90 1006.2
20260507111510 43 339 0.9 1.7 0.00 1.32 0.15 88 1006.3
20260507110014 42 339 0.0 1.7 0.00 1.32 0.15 91 1006.1
20260507104503 42 339 0.0 0.0 0.00 1.32 0.15 92 1005.9
20260507103004 43 339 1.7 3.5 0.00 1.32 0.15 87 1005.9
20260507101508 42 281 0.0 0.9 0.00 1.32 0.15 91 1005.7
20260507100012 42 281 0.0 2.6 0.00 1.32 0.15 90 1005.9
20260507094516 42 294 0.9 2.6 0.00 1.32 0.15 92 1005.9
20260507093004 41 300 0.9 1.7 0.00 1.32 0.15 93 1005.3
20260507091506 41 300 0.0 1.7 0.00 1.32 0.15 92 1004.8
20260507090013 42 300 1.7 2.6 0.00 1.32 0.15 90 1005.5
20260507084519 42 314 0.9 1.7 0.00 1.32 0.15 90 1005.3
20260507083022 43 50 0.0 1.7 0.00 1.32 0.15 91 1005.3
20260507081505 43 45 0.0 1.7 0.00 1.32 0.15 91 1005.1